Location: Newark
(45.4422°N, 16.2769°E)
Time: 03:30:12
(UTC+00:00)

Transit 4A - All Passes

Search period start: 09 December 2019 00:00
Search period end: 19 December 2019 00:00
Orbit: 870 x 975 km, 66.8° (Epoch: 08 December)

Date Brightness Start Highest point End Pass type
(mag) Time Alt. Az. Time Alt. Az. Time Alt. Az.
09 Dec - 01:22:07 10° NW 01:27:55 65° WSW 01:33:39 10° SSE night (unlit)
09 Dec - 14:46:28 10° SSE 14:50:53 21° ESE 14:55:15 10° ENE daylight
09 Dec - 16:30:27 10° SW 16:36:39 75° NW 16:42:43 10° NNE visible
09 Dec - 18:19:39 10° W 18:24:01 20° NW 18:28:21 10° NNE visible
09 Dec - 22:00:11 10° N 22:02:28 12° NNE 22:04:45 10° NE night (unlit)
09 Dec - 23:45:15 10° NNW 23:50:42 37° NE 23:56:02 10° ESE night (unlit)
10 Dec - 01:31:36 10° NW 01:37:08 44° WSW 01:42:36 10° S night (unlit)
10 Dec - 14:54:41 10° SSE 14:59:59 30° ESE 15:05:11 10° NE daylight
10 Dec - 16:40:01 10° SW 16:46:04 54° NW 16:51:59 10° NNE visible
10 Dec - 18:30:13 10° WNW 18:33:49 16° NNW 18:37:23 10° N visible
10 Dec - 22:09:07 10° N 22:12:22 15° NNE 22:15:36 10° ENE night (unlit)
10 Dec - 23:54:28 10° NNW 00:00:12 50° NE 00:05:50 10° SE night (unlit)
11 Dec - 01:41:16 10° NW 01:46:17 30° WSW 01:51:14 10° SSW night (unlit)
11 Dec - 15:03:19 10° S 15:09:08 44° ESE 15:14:51 10° NE daylight
11 Dec - 16:49:49 10° WSW 16:55:34 40° NW 17:01:13 10° NNE visible
11 Dec - 18:41:00 10° NW 18:43:41 13° NNW 18:46:21 10° N visible
11 Dec - 22:18:09 10° N 22:22:11 18° NNE 22:26:10 10° ENE night (unlit)
12 Dec - 00:03:45 10° NNW 00:09:38 71° NE 00:15:25 10° SE night (unlit)
12 Dec - 01:51:13 10° WNW 01:55:21 20° WSW 01:59:27 10° SSW night (unlit)
12 Dec - 15:12:16 10° SSW 15:18:23 63° ESE 15:24:21 10° NE daylight
12 Dec - 16:59:49 10° WSW 17:05:09 30° NW 17:10:23 10° NNE visible
12 Dec - 18:52:09 10° NNW 18:53:38 11° NNW 18:55:06 10° N visible
12 Dec - 22:27:15 10° NNW 22:31:55 23° NE 22:36:31 10° E night (unlit)
13 Dec - 00:13:05 10° NW 00:18:58 82° WSW 00:24:47 10° SSE night (unlit)
13 Dec - 02:01:48 10° WNW 02:04:21 13° WSW 02:06:53 10° SW night (unlit)
13 Dec - 13:38:36 10° SE 13:42:07 16° ESE 13:45:38 10° ENE daylight
13 Dec - 15:21:28 10° SSW 15:27:40 89° ESE 15:33:44 10° NNE daylight
13 Dec - 17:10:02 10° W 17:14:49 23° NW 17:19:31 10° NNE visible
13 Dec - 20:51:39 10° N 20:53:07 11° NNE 20:54:37 10° NNE night (unlit)
13 Dec - 22:36:24 10° NNW 22:41:34 31° NE 22:46:39 10° ESE night (unlit)
14 Dec - 00:22:31 10° NW 00:28:14 57° WSW 00:33:54 10° SSE night (unlit)
14 Dec - 13:46:24 10° SSE 13:51:11 24° ESE 13:55:52 10° ENE daylight
14 Dec - 15:30:54 10° SW 15:37:03 67° NW 15:43:04 10° NNE daylight
14 Dec - 17:20:28 10° WNW 17:24:33 18° NNW 17:28:36 10° N visible
14 Dec - 21:00:24 10° N 21:03:03 13° NNE 21:05:41 10° NE night (unlit)
14 Dec - 22:45:35 10° NNW 22:51:08 41° NE 22:56:36 10° ESE night (unlit)
15 Dec - 00:32:04 10° NW 00:37:26 38° WSW 00:42:44 10° S night (unlit)
15 Dec - 13:54:47 10° S 14:00:17 34° ESE 14:05:41 10° NE daylight
15 Dec - 15:40:33 10° SW 15:46:29 48° NW 15:52:19 10° NNE visible
15 Dec - 17:31:06 10° WNW 17:34:22 15° NNW 17:37:37 10° N visible
15 Dec - 21:09:23 10° N 21:12:55 16° NNE 21:16:25 10° ENE night (unlit)
15 Dec - 22:54:49 10° NNW 23:00:36 57° NE 23:06:19 10° SE night (unlit)
16 Dec - 00:41:50 10° NW 00:46:33 26° WSW 00:51:15 10° SSW night (unlit)
16 Dec - 14:03:32 10° S 14:09:29 50° ESE 14:15:17 10° NE daylight
16 Dec - 15:50:25 10° WSW 15:56:01 36° NW 16:01:30 10° NNE visible
16 Dec - 17:42:00 10° NW 17:44:17 12° NNW 17:46:32 10° N visible
16 Dec - 21:18:26 10° NNW 21:22:42 20° NE 21:26:55 10° E night (unlit)
16 Dec - 23:04:07 10° NNW 23:10:00 80° ENE 23:15:49 10° SE night (unlit)
17 Dec - 00:51:56 10° WNW 00:55:35 17° WSW 00:59:15 10° SW night (unlit)
17 Dec - 12:31:18 10° ESE 12:33:23 12° E 12:35:28 10° E daylight
17 Dec - 14:12:34 10° SSW 14:18:43 72° ESE 14:24:44 10° NE daylight
17 Dec - 16:00:30 10° W 16:05:38 27° NW 16:10:40 10° NNE visible
17 Dec - 17:53:32 10° NNW 17:54:14 10° NNW 17:54:56 10° N visible
17 Dec - 21:27:33 10° NNW 21:32:24 26° NE 21:37:11 10° E night (unlit)
17 Dec - 23:13:29 10° NW 23:19:19 72° WSW 23:25:05 10° SSE night (unlit)
18 Dec - 01:03:10 10° W 01:04:35 11° W 01:05:58 10° WSW night (unlit)
18 Dec - 12:38:20 10° SE 12:42:23 18° ESE 12:46:23 10° ENE daylight
18 Dec - 14:21:52 10° SW 14:28:03 82° WNW 14:34:06 10° NNE daylight
18 Dec - 16:10:48 10° W 16:15:19 21° NW 16:19:46 10° NNE visible
18 Dec - 19:51:47 10° N 19:53:42 11° NNE 19:55:38 10° NE visible
18 Dec - 21:36:42 10° NNW 21:42:01 34° NE 21:47:15 10° ESE night (unlit)
18 Dec - 23:22:57 10° NW 23:28:33 49° WSW 23:34:07 10° S night (unlit)
